DW9029 San Juan de Aznalfarache ES current weather conditions

sailwx.info

Wind from 181

Air temperature 18.9° C
Dewpoint 16.3° C

Last reported at 2018-Jul-19 02:49 UTC.
Time now 2018-Jul-19 04:08 UTC

Location: N 37°22' W 006°02'.
View on Google Maps.

See reports from other nearby stations

  
Tides and Currents Weather Stations Pressure Air Temp Water Temp Dewpoint Dewpoint Depression Visibility Wind Speed Wind Dir Waves Ship Positions
date/time (UTC)wind fromknots sea level pressurealtimeterstation pressurevisibilityair tempwater tempwave heightnotes
2018-Jul-19 02:49 181 18.9
2018-Jul-19 02:44 181 18.9
2018-Jul-19 02:39 181 19.4
2018-Jul-19 02:34 181 19.4
2018-Jul-19 02:19 193 20.0
2018-Jul-19 02:14 191 20.0
2018-Jul-19 02:09 213 20.0
2018-Jul-19 02:04 213 19.4
2018-Jul-19 01:49 213 0 gusting 4 19.4
2018-Jul-19 01:44 217 0 gusting 4 19.4
2018-Jul-19 01:39 215 19.4
2018-Jul-19 01:34 207 19.4
2018-Jul-19 01:19 176 19.4
2018-Jul-19 01:14 186 0 gusting 4 19.4
2018-Jul-19 01:09 183 19.4
2018-Jul-19 01:04 180 0 gusting 4 19.4
2018-Jul-19 00:49 180 20.0
2018-Jul-19 00:44 182 20.0
2018-Jul-19 00:39 170 19.4
2018-Jul-19 00:34 171 20.0
2018-Jul-19 00:19 170 20.0
2018-Jul-19 00:14 188 20.0
2018-Jul-19 00:09 168 20.0
2018-Jul-19 00:04 169 0 gusting 2 20.0
2018-Jul-18 23:49 178 0 gusting 2 20.6
2018-Jul-18 23:44 173 20.6
2018-Jul-18 23:39 169 20.6
2018-Jul-18 23:34 159 20.6
2018-Jul-18 23:19 170 21.1
2018-Jul-18 23:14 171 21.1
2018-Jul-18 23:09 164 21.1
2018-Jul-18 23:04 158 21.7
2018-Jul-18 22:49 173 21.7
2018-Jul-18 22:44 175 22.2
2018-Jul-18 22:39 162 22.2
2018-Jul-18 22:34 170 22.2
2018-Jul-18 22:19 166 22.8
2018-Jul-18 22:14 167 23.3
2018-Jul-18 22:09 167 23.9
2018-Jul-18 22:04 167 23.9
2018-Jul-18 21:49 169 24.4
2018-Jul-18 21:44 157 25.0
2018-Jul-18 21:39 216 25.0
2018-Jul-18 21:34 215 24.4
2018-Jul-18 21:19 156 25.6
2018-Jul-18 21:14 148 25.6
2018-Jul-18 21:09 136 26.1
2018-Jul-18 21:04 188 26.7
2018-Jul-18 20:49 261 4 gusting 6 27.2
2018-Jul-18 20:44 263 2 gusting 6 27.2
2018-Jul-18 20:39 260 1 gusting 6 27.2
2018-Jul-18 20:34 259 1 gusting 8 27.8
2018-Jul-18 20:19 255 3 gusting 8 28.3
2018-Jul-18 20:14 254 2 gusting 7 28.3
2018-Jul-18 20:09 259 1 gusting 5 28.9
2018-Jul-18 20:04 256 1 gusting 6 28.9
2018-Jul-18 19:49 262 2 gusting 10 29.4
2018-Jul-18 19:44 256 1 gusting 6 29.4
2018-Jul-18 19:39 244 30.0
2018-Jul-18 19:34 255 1 gusting 7 30.0
2018-Jul-18 19:19 249 0 gusting 10 30.6
2018-Jul-18 19:14 244 2 gusting 8 30.6
2018-Jul-18 19:09 239 2 gusting 7 31.1
2018-Jul-18 19:04 253 2 gusting 13 31.1
2018-Jul-18 18:49 227 2 gusting 10 31.1
2018-Jul-18 18:44 216 4 gusting 8 31.7
2018-Jul-18 18:39 216 4 gusting 7 31.7
2018-Jul-18 18:34 223 5 gusting 11 31.7
2018-Jul-18 18:19 213 5 gusting 10 32.2
2018-Jul-18 18:14 208 2 gusting 7 32.2
2018-Jul-18 18:09 238 4 gusting 8 32.2
2018-Jul-18 18:04 201 4 gusting 12 32.2
2018-Jul-18 17:49 190 0 gusting 8 32.2
2018-Jul-18 17:44 188 4 gusting 10 32.2
2018-Jul-18 17:39 182 4 gusting 8 32.2
2018-Jul-18 17:34 201 4 gusting 10 32.2
2018-Jul-18 17:19 190 4 gusting 8 32.2
2018-Jul-18 17:14 189 3 gusting 10 32.8
2018-Jul-18 17:09 165 1 gusting 7 32.8
2018-Jul-18 17:04 212 2 gusting 10 32.8
2018-Jul-18 16:49 188 3 gusting 7 32.8
2018-Jul-18 16:44 193 4 gusting 10 32.8
2018-Jul-18 16:39 195 3 gusting 7 32.8
2018-Jul-18 16:34 192 2 gusting 8 32.8
2018-Jul-18 16:19 206 1 gusting 10 32.8
2018-Jul-18 16:14 209 4 gusting 8 32.8
2018-Jul-18 16:09 205 2 gusting 10 32.8
2018-Jul-18 16:04 175 2 gusting 10 32.8
2018-Jul-18 15:49 165 2 gusting 8 32.8
2018-Jul-18 15:44 175 4 gusting 10 32.2
2018-Jul-18 15:39 149 3 gusting 10 32.8
2018-Jul-18 15:34 172 2 gusting 10 32.2
2018-Jul-18 15:19 152 2 gusting 8 32.2
2018-Jul-18 15:14 206 5 gusting 7 32.2
2018-Jul-18 15:09 162 4 gusting 8 32.2
2018-Jul-18 15:04 163 1 gusting 13 32.2
2018-Jul-18 14:49 187 3 gusting 12 32.2
2018-Jul-18 14:44 180 4 gusting 10 32.2
2018-Jul-18 14:39 161 2 gusting 10 32.2
2018-Jul-18 14:34 171 1 gusting 8 32.2
2018-Jul-18 14:19 194 5 gusting 8 31.7
2018-Jul-18 14:14 139 2 gusting 8 31.7
2018-Jul-18 14:09 137 2 gusting 6 31.7
2018-Jul-18 14:04 211 2 gusting 8 31.7
2018-Jul-18 13:49 182 3 gusting 7 31.7
2018-Jul-18 13:19 127 0 gusting 6 30.6
2018-Jul-18 13:14 185 2 gusting 7 30.6
2018-Jul-18 13:09 228 2 gusting 8 30.6
2018-Jul-18 13:04 217 1 gusting 10 30.6
2018-Jul-18 12:49 152 1 gusting 6 30.6
2018-Jul-18 12:44 201 30.0
2018-Jul-18 12:39 155 0 gusting 10 30.0
2018-Jul-18 12:34 158 2 gusting 8 30.0
2018-Jul-18 12:19 136 3 gusting 8 29.4
2018-Jul-18 12:14 153 2 gusting 7 29.4
2018-Jul-18 12:09 194 4 gusting 10 29.4
2018-Jul-18 12:04 187 1 gusting 8 29.4
2018-Jul-18 11:49 173 1 gusting 7 29.4
2018-Jul-18 11:44 160 2 gusting 6 28.9
2018-Jul-18 11:39 157 4 gusting 7 28.9
2018-Jul-18 11:34 172 1 gusting 8 28.9
2018-Jul-18 11:19 202 5 gusting 8 28.9
2018-Jul-18 11:14 193 1 gusting 5 28.9
2018-Jul-18 11:09 124 28.3
2018-Jul-18 11:04 208 28.3
2018-Jul-18 10:49 198 0 gusting 4 27.8
2018-Jul-18 10:44 213 2 gusting 10 27.8
2018-Jul-18 10:39 174 1 gusting 6 27.8
2018-Jul-18 10:34 195 27.8
2018-Jul-18 10:19 205 1 gusting 6 27.8
2018-Jul-18 10:14 133 0 gusting 6 27.2
2018-Jul-18 10:09 180 0 gusting 6 27.2
2018-Jul-18 10:04 236 0 gusting 4 26.7
2018-Jul-18 09:49 209 4 gusting 7 26.1
2018-Jul-18 09:44 205 4 gusting 8 26.7
2018-Jul-18 09:39 169 2 gusting 7 26.1
2018-Jul-18 09:34 203 1 gusting 8 26.1
2018-Jul-18 09:19 196 2 gusting 6 25.6
2018-Jul-18 09:14 241 2 gusting 6 25.6
2018-Jul-18 09:09 204 4 gusting 6 25.6
2018-Jul-18 09:04 203 0 gusting 6 25.0
2018-Jul-18 08:49 216 4 gusting 6 24.4
2018-Jul-18 08:44 206 0 gusting 7 23.9
2018-Jul-18 08:39 205 2 gusting 7 23.3
2018-Jul-18 08:34 208 4 gusting 6 23.3
2018-Jul-18 08:19 214 2 gusting 6 22.8
2018-Jul-18 08:14 217 5 gusting 10 22.8
2018-Jul-18 08:09 211 5 gusting 10 22.8
2018-Jul-18 08:04 193 22.8
2018-Jul-18 07:49 212 0 gusting 4 21.7
2018-Jul-18 07:44 221 1 gusting 6 21.7
2018-Jul-18 07:39 228 2 gusting 5 21.7
2018-Jul-18 07:34 228 22.2
2018-Jul-18 07:19 165 21.1
2018-Jul-18 07:14 158 1 gusting 4 21.1
2018-Jul-18 07:09 155 0 gusting 4 21.1
2018-Jul-18 07:04 151 0 gusting 5 21.1
2018-Jul-18 06:49 146 21.1
2018-Jul-18 02:34 219 22.8
2018-Jul-18 02:19 247 23.3
2018-Jul-18 02:14 246 23.3
2018-Jul-18 02:09 224 23.3
2018-Jul-18 02:04 238 23.3
2018-Jul-18 01:49 267 22.8
2018-Jul-18 01:44 219 0 gusting 6 22.8
2018-Jul-18 01:39 236 1 gusting 6 22.8
2018-Jul-18 01:34 224 4 gusting 6 22.8
2018-Jul-18 01:19 212 22.2
2018-Jul-18 01:14 199 22.2
2018-Jul-18 01:09 183 22.8
2018-Jul-18 01:04 185 22.2
2018-Jul-18 00:49 179 23.3
2018-Jul-18 00:44 215 23.3
2018-Jul-18 00:39 217 23.3
2018-Jul-18 00:34 210 23.3
2018-Jul-18 00:19 197 22.8
2018-Jul-18 00:14 180 23.3
2018-Jul-18 00:09 169 23.3
2018-Jul-18 00:04 192 23.9
2018-Jul-17 23:49 268 23.9
2018-Jul-17 23:44 256 23.9
2018-Jul-17 23:39 261 24.4
2018-Jul-17 23:34 254 24.4
2018-Jul-17 23:19 178 24.4
2018-Jul-17 23:14 182 24.4
2018-Jul-17 23:09 292 23.9
2018-Jul-17 23:04 296 23.9
2018-Jul-17 22:49 299 24.4
2018-Jul-17 22:44 275 0 gusting 4 23.9
2018-Jul-17 22:39 262 23.9
2018-Jul-17 22:34 245 0 gusting 7 24.4
2018-Jul-17 22:19 209 0 gusting 6 25.0
2018-Jul-17 22:14 214 25.0
2018-Jul-17 22:09 216 0 gusting 4 25.0
2018-Jul-17 22:04 229 0 gusting 6 25.6
2018-Jul-17 21:49 228 2 gusting 6 25.6
2018-Jul-17 21:44 248 2 gusting 6 26.1
2018-Jul-17 21:39 227 0 gusting 4 26.1
2018-Jul-17 21:34 267 0 gusting 8 26.1
2018-Jul-17 21:19 238 0 gusting 10 26.7
2018-Jul-17 21:14 207 5 gusting 7 26.7
2018-Jul-17 21:09 203 1 gusting 7 27.2
2018-Jul-17 21:04 206 2 gusting 7 27.2
2018-Jul-17 20:49 173 27.8
2018-Jul-17 20:44 172 0 gusting 7 28.3
2018-Jul-17 20:39 227 0 gusting 7 28.9
2018-Jul-17 20:34 197 0 gusting 7 29.4
2018-Jul-17 20:19 202 0 gusting 6 30.0
2018-Jul-17 20:14 203 30.6
2018-Jul-17 20:09 196 0 gusting 6 30.6
2018-Jul-17 20:04 226 0 gusting 7 31.1
2018-Jul-17 19:49 231 1 gusting 6 31.7
2018-Jul-17 19:44 216 0 gusting 4 31.7
2018-Jul-17 19:39 219 2 gusting 6 31.7
2018-Jul-17 19:34 224 0 gusting 7 31.7
2018-Jul-17 19:19 223 3 gusting 10 32.2
2018-Jul-17 19:14 226 4 gusting 8 32.8
2018-Jul-17 19:09 233 4 gusting 8 32.8
2018-Jul-17 19:04 249 1 gusting 7 32.8
2018-Jul-17 18:49 235 2 gusting 8 33.3
2018-Jul-17 18:44 226 2 gusting 10 33.9
2018-Jul-17 18:39 238 2 gusting 10 33.9
2018-Jul-17 18:34 222 5 gusting 13 33.9
2018-Jul-17 18:19 235 3 gusting 8 34.4
2018-Jul-17 18:14 258 4 gusting 12 34.4
2018-Jul-17 18:09 238 2 gusting 8 34.4
2018-Jul-17 18:04 225 6 gusting 11 34.4
2018-Jul-17 17:49 234 4 gusting 10 35.0
2018-Jul-17 17:44 241 4 gusting 11 35.0
2018-Jul-17 17:39 243 5 gusting 10 35.6
2018-Jul-17 17:34 242 4 gusting 8 35.6
2018-Jul-17 17:19 193 4 gusting 10 34.4
2018-Jul-17 17:14 161 0 gusting 11 34.4
2018-Jul-17 17:09 174 1 gusting 10 34.4
2018-Jul-17 17:04 186 2 gusting 7 35.0
2018-Jul-17 16:49 176 1 gusting 7 35.0
2018-Jul-17 16:44 166 0 gusting 6 35.0
2018-Jul-17 16:39 187 5 gusting 10 35.0
2018-Jul-17 16:34 181 35.6
2018-Jul-17 16:19 200 1 gusting 6 35.0
2018-Jul-17 16:14 113 0 gusting 6 35.0
2018-Jul-17 16:09 117 0 gusting 7 35.6
2018-Jul-17 16:04 194 2 gusting 6 35.6
2018-Jul-17 15:49 175 0 gusting 6 35.6
2018-Jul-17 15:44 224 2 gusting 10 35.6
2018-Jul-17 15:39 214 2 gusting 8 35.6
2018-Jul-17 15:34 223 2 gusting 10 35.6
2018-Jul-17 15:19 215 2 gusting 6 35.6
2018-Jul-17 15:14 235 3 gusting 6 35.6
2018-Jul-17 15:09 206 0 gusting 5 35.6
2018-Jul-17 15:04 201 3 gusting 10 35.6
2018-Jul-17 14:49 244 4 gusting 6 35.6
2018-Jul-17 14:44 221 5 gusting 10 35.6
2018-Jul-17 14:39 185 4 gusting 10 35.6
2018-Jul-17 14:34 212 1 gusting 6 35.6
2018-Jul-17 14:19 144 1 gusting 7 35.6
2018-Jul-17 14:14 168 0 gusting 8 35.6
2018-Jul-17 14:09 155 1 gusting 5 35.6
2018-Jul-17 14:04 164 0 gusting 8 35.6
2018-Jul-17 13:49 121 4 gusting 7 35.0
2018-Jul-17 13:44 212 4 gusting 8 35.0
2018-Jul-17 13:39 141 1 gusting 6 35.0
2018-Jul-17 13:34 138 3 gusting 8 35.0
2018-Jul-17 13:19 033 35.0
2018-Jul-17 13:14 219 0 gusting 5 35.0
2018-Jul-17 13:09 122 0 gusting 5 35.0
2018-Jul-17 13:04 202 0 gusting 2 35.0
2018-Jul-17 12:49 212 0 gusting 2 33.9
2018-Jul-17 12:44 340 33.9
2018-Jul-17 12:39 320 0 gusting 4 33.3
2018-Jul-17 12:34 288 0 gusting 5 33.3
2018-Jul-17 12:19 182 2 gusting 5 33.3
2018-Jul-17 12:14 179 1 gusting 5 33.3
2018-Jul-17 12:09 223 32.8
2018-Jul-17 12:04 274 33.3
2018-Jul-17 11:49 315 32.2
2018-Jul-17 11:44 356 32.2
2018-Jul-17 11:39 014 0 gusting 2 32.8
2018-Jul-17 11:34 038 32.2
2018-Jul-17 11:19 031 2 gusting 6 31.7
2018-Jul-17 11:14 076 31.7
2018-Jul-17 11:09 053 1 gusting 5 31.7
2018-Jul-17 11:04 023 31.1
2018-Jul-17 10:49 060 1 gusting 6 30.6
2018-Jul-17 10:44 066 30.6
2018-Jul-17 10:39 015 0 gusting 4 30.6
2018-Jul-17 10:34 023 1 gusting 5 30.0
2018-Jul-17 10:19 011 2 gusting 5 30.0
2018-Jul-17 10:14 031 1 gusting 5 30.0
2018-Jul-17 10:09 333 1 gusting 6 29.4
2018-Jul-17 10:04 026 29.4
2018-Jul-17 09:49 035 28.9
2018-Jul-17 09:44 027 28.3
2018-Jul-17 09:39 036 28.3
2018-Jul-17 09:34 063 28.3
2018-Jul-17 09:19 071 0 gusting 4 27.2
2018-Jul-17 09:14 029 1 gusting 6 27.2
2018-Jul-17 09:09 057 27.2
2018-Jul-17 09:04 025 27.2
2018-Jul-17 08:49 017 1 gusting 6 26.1
2018-Jul-17 08:44 003 1 gusting 2 26.1
2018-Jul-17 08:39 022 25.6
2018-Jul-17 08:34 041 2 gusting 5 25.6
2018-Jul-17 08:19 037 25.0
2018-Jul-17 08:14 037 0 gusting 2 24.4
2018-Jul-17 08:09 022 0 gusting 6 24.4
2018-Jul-17 08:04 037 1 gusting 6 23.9
2018-Jul-17 07:49 008 23.3
2018-Jul-17 07:44 004 0 gusting 6 23.3
2018-Jul-17 07:39 017 0 gusting 5 23.3
2018-Jul-17 07:34 017 23.3
2018-Jul-17 07:19 017 22.2
2018-Jul-17 07:14 357 21.7
2018-Jul-17 07:09 350 0 gusting 2 21.7
2018-Jul-17 07:04 21.7
2018-Jul-17 06:49 014 2 gusting 4 21.1
2018-Jul-17 06:44 003 21.1
2018-Jul-17 06:39 354 20.6
2018-Jul-17 06:34 20.6
2018-Jul-17 06:19 004 20.6
2018-Jul-17 06:14 016 0 gusting 4 20.6
2018-Jul-17 06:09 013 20.6
2018-Jul-17 06:04 357 20.6
2018-Jul-17 05:49 330 20.6
2018-Jul-17 05:44 324 20.6
2018-Jul-17 05:39 272 20.6
2018-Jul-17 05:34 272 20.6
2018-Jul-17 05:19 272 20.6
2018-Jul-17 05:14 272 20.6
2018-Jul-17 05:09 272 20.6
2018-Jul-17 05:04 257 20.0
2018-Jul-17 04:49 257 20.0
2018-Jul-17 04:44 257 20.0
2018-Jul-17 04:39 255 20.0
2018-Jul-17 04:34 255 19.4
2018-Jul-17 04:19 255 19.4
2018-Jul-17 04:14 255 20.0
2018-Jul-17 04:09 255 20.0
2018-Jul-17 04:04 255 20.0